Location: B�rgermoos
(47.6500°N, 9.0667°E)
Time: 06:55:30
(UTC+00:00)

Vanguard 3 - Pass Details

Date: 03 August 2021
Orbit: 510 x 3260 km, 33.3° (Epoch: 16 September)

Event Time Altitude Azimuth Distance (km) Brightness Sun altitude
Rises 22:10:13 0° 275° (W) 6,844 12.2 -22.7°
Reaches altitude 10° 22:15:24 10° 266° (W) 6,037 11.7 -23.0°
Maximum altitude 22:30:44 31° 215° (SW) 4,629 10.6 -23.8°
Enters shadow 22:36:29 26° 190° (S) 4,728 10.5 -24.0°
